Wind_Speed
60 61 62 63 63 64 65 65 66 66 67 68 68 69 70 70 71 72 72 73 73 73 74 74 75 75 76 76 77 78 79 79 80 81 82 83 83 84 85 85 86 87 88 89 90 91 92 93 93 94 95 96 97 98 99 100 101 101 102 103 104 105 106 106 107 104 101 101 103 104 106 107 106 106 108 108 107 107 108 108 107 107 107 106 105
61 61 62 62 63 63 64 64 65 65 66 66 67 67 68 69 69 70 70 71 71 72 72 73 73 74 75 76 76 77 78 79 80 81 82 83 84 85 86 86 87 88 89 91 92 93 94 95 95 96 97 98 99 100 101 102 103 103 104 105 106 106 108 108 109 108 105 103 104 105 107 109 109 108 110 110 109 109 110 110 109 108 108 108 107
61 61 61 62 62 62 62 63 63 63 64 64 65 65 66 67 67 68 68 69 70 71 71 72 73 74 75 77 78 79 80 81 82 83 83 84 85 86 87 88 89 90 91 92 93 95 95 96 97 97 98 99 100 101 101 102 103 104 104 105 106 106 107 109 109 109 107 105 104 106 108 110 111 110 110 111 112 111 111 112 112 111 111 110 109
59 59 59 59 59 59 59 60 60 61 62 62 63 64 65 66 67 68 68 69 70 72 72 73 75 76 77 78 79 80 81 82 83 84 85 85 86 87 87 88 89 90 91 93 94 95 95 96 96 97 97 98 99 100 100 101 102 102 103 104 104 105 105 107 107 108 107 105 103 104 106 108 109 109 109 109 110 111 111 112 112 112 112 112 112
55 55 55 56 56 57 58 58 59 60 61 63 64 65 66 66 67 68 69 70 71 73 73 74 75 77 78 79 80 80 81 82 83 84 85 85 86 87 87 88 89 90 91 93 94 94 95 96 96 97 97 98 98 99 100 101 101 102 102 103 104 105 105 106 107 107 107 106 104 104 105 107 108 109 108 109 109 110 110 111 112 112 112 112 112
53 53 54 55 56 57 58 59 60 61 62 63 64 65 66 67 68 69 70 71 72 73 74 75 76 77 78 79 80 81 82 83 84 84 85 86 87 87 88 89 90 91 93 94 94 95 96 96 97 97 98 98 99 99 100 101 102 102 103 104 104 105 106 106 107 108 108 108 107 106 106 108 110 110 110 111 111 112 112 112 112 113 113 113 113
52 53 54 55 56 57 58 60 61 62 63 64 65 66 67 68 69 70 71 71 72 73 74 75 76 77 79 80 81 82 83 84 85 86 87 87 88 88 89 90 91 92 93 93 94 94 95 96 96 97 97 98 98 99 100 101 102 103 104 104 105 106 107 107 108 109 109 109 109 109 108 109 111 112 113 113 114 114 115 115 114 114 115 115 115
53 54 55 56 57 58 59 60 61 62 63 64 65 66 67 69 70 70 71 72 73 74 75 76 78 79 80 81 82 83 84 85 86 87 87 88 88 88 88 89 91 92 92 92 93 94 95 96 96 97 98 99 99 100 101 101 102 103 104 105 106 106 107 107 108 109 110 110 110 110 110 110 112 113 114 115 115 115 116 117 117 116 117 117 117
54 55 56 57 58 59 60 61 62 64 65 66 67 68 69 70 71 72 73 73 74 76 77 78 79 81 82 83 84 84 85 85 86 86 87 87 86 86 87 90 91 91 92 92 93 94 95 96 97 98 98 99 99 100 101 101 102 102 103 104 105 106 106 107 108 108 109 110 110 110 111 111 112 113 114 115 115 116 116 117 118 118 118 118 117
54 55 57 58 59 61 62 63 64 65 66 67 68 69 70 71 72 73 74 75 76 77 78 80 81 82 82 83 83 84 84 84 85 86 86 87 86 86 89 91 92 92 92 92 93 94 95 95 96 97 97 98 99 100 101 101 102 102 103 104 105 106 107 107 108 109 110 111 111 111 112 112 112 113 114 115 116 116 117 117 118 119 119 118 117
56 57 58 59 60 62 63 64 65 66 67 68 69 70 71 72 73 74 76 77 78 78 79 80 81 81 82 83 83 83 84 85 86 87 88 88 87 87 90 91 91 91 91 91 92 93 94 95 96 97 98 99 100 101 101 101 102 103 104 105 106 107 108 109 109 110 111 111 111 112 112 112 112 113 114 115 116 116 116 117 117 118 119 119 119
57 58 60 61 62 63 64 65 66 67 68 69 70 72 73 74 75 76 77 77 78 78 79 80 80 81 82 83 83 84 85 86 86 87 88 87 86 87 89 89 89 90 91 92 93 94 95 96 97 98 99 99 100 101 101 101 102 103 103 104 105 106 106 107 107 107 108 108 107 107 107 107 108 108 109 110 111 111 111 111 112 113 114 115 115
59 60 61 62 63 64 65 66 67 68 70 71 72 73 74 75 76 76 77 77 78 78 79 80 81 82 83 84 84 84 85 85 85 85 86 86 86 87 89 90 90 91 92 93 94 95 95 96 97 98 99 100 100 100 100 100 100 100 100 99 99 99 99 99 100 100 100 100 99 99 99 100 100 99 100 102 103 103 103 102 103 104 105 106 107
60 61 62 63 64 65 66 67 69 70 71 72 73 74 75 75 76 77 77 78 78 79 79 80 81 82 83 83 83 82 83 83 84 84 85 86 87 89 91 91 91 92 93 94 94 95 95 96 97 98 98 99 98 97 96 95 94 93 92 91 91 91 90 91 91 92 93 94 93 93 93 94 94 93 94 96 97 97 96 95 95 96 98 99 100
60 61 62 63 64 66 67 69 70 71 72 73 73 74 75 75 76 77 77 78 78 79 79 80 80 80 81 81 81 81 82 83 84 85 86 87 88 90 91 91 91 92 92 93 94 94 95 95 94 94 93 93 92 90 88 87 86 85 84 84 83 83 83 84 85 85 86 88 88 87 87 88 89 89 89 91 92 92 91 90 91 92 93 94 95
61 62 63 65 66 67 68 70 71 71 72 73 74 74 75 76 76 77 77 78 78 78 77 77 77 78 79 80 81 82 83 84 85 86 87 87 88 90 90 90 90 91 91 91 91 91 90 89 88 87 86 85 84 83 82 81 80 79 78 78 77 77 77 78 79 80 81 82 83 83 83 83 84 84 85 86 88 88 86 85 87 89 89 90 90
62 63 65 66 67 68 69 70 71 72 73 73 74 75 75 76 76 76 76 75 75 75 75 76 77 78 80 81 82 83 83 84 85 86 86 86 87 88 89 88 88 88 87 86 84 83 82 81 80 79 78 79 78 77 76 75 75 74 73 73 72 72 73 74 74 75 77 78 79 79 80 80 80 80 80 82 84 84 82 81 83 85 85 86 86
63 65 66 67 68 69 70 71 71 72 73 73 74 74 74 74 74 73 73 73 73 74 75 76 77 79 80 81 82 83 83 84 84 85 85 85 85 86 85 83 82 80 79 78 77 75 75 74 73 73 72 73 73 72 72 71 71 70 70 69 69 69 69 70 70 71 72 72 73 74 75 76 76 76 76 77 79 80 79 78 79 80 81 82 82
64 65 66 67 68 69 70 71 71 72 72 72 72 72 71 71 71 71 72 73 74 75 76 77 78 79 80 80 81 82 82 82 83 83 84 83 81 80 78 76 74 73 71 70 70 69 69 69 68 68 68 68 68 68 67 67 66 66 66 65 64 64 65 65 65 66 66 66 67 68 69 70 71 71 72 72 73 74 74 73 74 75 75 75 75
65 66 66 67 68 69 69 70 70 70 70 70 69 69 69 70 71 72 73 73 74 75 76 76 77 78 78 79 80 80 80 80 80 80 79 77 75 72 71 69 68 67 66 65 64 64 63 63 62 62 61 61 61 61 62 62 62 62 62 61 60 60 60 60 61 61 61 61 62 62 63 64 65 65 66 66 67 67 67 67 67 68 68 68 67
65 66 66 67 67 68 68 68 67 67 67 68 68 69 69 70 71 72 72 73 74 74 75 75 76 76 77 77 77 77 77 76 75 73 72 70 68 66 65 63 62 61 61 59 58 57 56 55 55 54 54 55 55 56 57 57 57 58 58 57 57 57 57 56 57 57 57 57 57 58 58 58 59 59 60 60 61 61 60 60 60 61 61 60 59
64 65 65 65 65 65 65 65 66 66 67 68 68 69 69 70 70 71 72 72 73 73 74 74 75 75 75 75 74 72 71 69 68 66 65 64 62 61 60 58 57 55 53 52 50 48 48 48 48 49 50 51 51 52 52 52 53 53 53 53 53 53 53 53 53 53 53 53 54 54 54 54 54 54 54 54 54 55 54 54 54 54 54 54 54
63 63 63 63 63 63 64 64 65 66 67 68 68 69 69 69 70 70 71 71 72 72 73 73 73 72 71 70 68 66 64 63 61 60 60 59 58 56 54 52 49 47 45 44 43 42 43 43 44 45 46 48 48 49 49 49 50 50 50 50 50 50 51 51 51 50 50 50 50 50 50 50 50 50 50 49 49 49 49 49 49 49 49 49 49
61 61 61 62 62 63 63 64 65 66 66 67 67 68 68 68 69 69 70 70 71 70 70 70 69 68 66 64 62 60 58 57 56 56 55 54 52 50 47 44 42 41 39 39 38 39 39 41 42 43 44 45 47 47 48 48 49 49 49 49 50 50 50 50 50 49 49 48 47 47 47 47 47 47 46 46 46 45 45 45 45 45 45 44 44
60 60 61 61 62 62 63 64 64 65 65 66 66 67 67 68 68 68 69 69 68 67 66 65 63 61 59 57 56 54 54 53 52 50 49 47 45 43 41 39 38 37 36 36 36 37 38 39 41 42 43 44 45 47 47 48 48 48 49 49 49 49 49 49 49 49 48 47 46 45 44 44 44 44 43 43 43 43 42 41 42 42 42 41 41
59 60 60 61 61 62 62 63 63 63 64 65 65 66 67 67 67 67 66 66 65 63 61 59 57 56 54 53 51 50 49 48 46 44 42 40 40 39 38 37 36 35 35 35 36 37 38 39 40 42 43 44 45 46 47 47 48 48 48 48 48 48 48 49 49 49 48 46 45 44 43 42 42 42 41 41 41 41 39 39 39 39 40 39 38
59 59 60 60 61 61 61 61 62 63 63 64 64 65 65 65 65 64 63 62 60 58 56 54 53 51 50 49 48 46 44 42 40 39 37 37 36 36 36 36 35 35 36 36 37 38 39 40 41 42 43 44 45 45 46 46 47 47 47 47 47 47 47 48 48 48 48 46 44 43 41 40 40 40 40 40 39 39 38 37 36 36 37 36 36
58 59 59 59 59 60 60 61 61 62 63 63 63 63 62 62 61 60 58 57 55 53 52 50 49 48 47 45 44 42 40 38 36 35 34 34 34 35 35 36 36 36 37 38 39 40 40 41 42 42 43 44 45 46 46 46 46 46 46 46 46 46 46 47 48 48 48 46 44 42 40 39 38 38 38 38 38 37 37 36 35 35 34 34 33
57 58 58 58 58 59 59 60 61 61 62 61 61 60 58 57 56 55 53 52 50 49 48 46 45 44 43 41 40 39 38 36 35 34 33 33 33 34 35 36 37 37 38 38 39 40 41 41 41 42 43 44 45 46 46 47 47 46 46 46 45 46 46 46 47 48 47 45 42 41 39 38 37 37 37 37 37 37 36 35 35 34 33 33 32
56 56 57 57 58 58 59 59 60 60 59 58 57 55 54 53 52 50 49 48 47 46 44 43 42 41 39 38 37 36 36 35 35 34 33 33 33 34 35 36 37 38 38 39 39 40 41 41 41 42 43 43 44 45 46 46 46 46 46 45 45 45 45 46 46 46 44 42 40 39 38 37 36 36 36 35 35 36 35 35 34 33 32 31 31
55 56 56 57 57 58 58 58 58 57 55 54 52 51 50 49 48 46 45 44 43 43 42 40 39 37 36 36 36 35 35 35 34 34 34 34 34 35 36 37 37 38 38 39 40 40 41 41 42 42 42 43 43 44 45 45 45 45 46 46 45 44 44 45 45 43 42 40 39 37 35 34 34 35 35 35 35 34 34 34 33 32 31 31 30
55 55 56 56 57 57 57 56 54 53 51 50 48 47 46 45 44 43 42 41 41 40 39 37 36 35 34 34 35 35 35 34 34 34 35 35 35 36 37 37 38 38 39 39 40 40 41 41 41 42 42 43 43 43 44 44 44 45 45 45 44 44 44 43 43 41 40 39 37 35 34 33 33 34 35 35 35 35 34 33 32 31 30 30 29
54 55 55 55 55 55 54 52 51 49 48 46 45 44 42 41 40 39 38 37 37 36 36 35 34 34 33 33 33 34 34 34 34 34 35 35 36 36 37 37 38 38 39 39 40 40 41 41 41 42 42 42 43 43 43 43 43 44 44 44 43 43 43 42 41 40 39 38 36 34 33 32 32 33 35 35 35 35 34 32 30 29 28 28 28
54 54 54 54 53 52 50 48 47 45 44 43 42 41 40 39 38 37 36 35 34 33 33 33 33 33 32 32 32 33 33 34 34 34 35 36 36 37 38 38 39 39 39 40 40 40 40 41 41 42 42 42 42 42 42 42 43 43 43 43 42 42 41 41 40 38 37 36 35 33 31 31 31 32 33 34 35 35 34 31 29 26 26 26 26
53 53 52 51 49 48 46 45 43 42 41 40 39 38 37 37 36 35 35 34 34 33 33 33 33 33 33 32 32 33 33 34 35 35 36 37 38 38 39 40 40 40 40 40 40 39 39 40 41 41 41 42 42 42 41 42 42 42 42 42 41 41 40 40 38 37 36 35 33 32 31 30 30 31 32 34 35 35 33 30 27 24 23 24 24
52 51 49 47 46 44 43 42 40 39 38 37 36 36 35 35 34 34 33 33 34 34 34 34 34 34 34 34 34 34 35 36 37 38 38 39 39 39 40 40 40 40 40 40 39 39 39 39 39 40 41 41 41 41 41 41 41 41 41 41 40 39 39 38 37 36 35 34 33 32 31 30 31 31 32 34 35 35 34 30 25 22 21 21 22
50 48 46 44 42 41 40 39 38 37 36 35 34 34 33 33 33 33 33 33 33 34 34 35 35 36 36 36 37 37 37 38 39 39 40 40 40 40 40 40 40 40 40 39 39 39 38 38 39 39 39 40 40 40 40 40 40 40 40 40 39 38 37 37 36 35 35 34 33 33 32 31 31 31 32 33 34 35 34 30 25 22 20 20 21
46 44 42 41 40 38 37 36 35 35 34 33 33 32 32 32 32 32 32 33 33 34 35 36 36 37 38 39 39 40 40 40 40 40 40 40 40 40 40 39 39 39 39 39 38 38 38 38 38 38 39 39 39 39 39 39 39 39 39 38 38 37 36 36 35 35 34 33 33 32 32 31 31 30 30 31 32 33 33 30 26 22 20 20 20
43 41 40 38 37 36 35 34 33 33 32 32 31 31 31 31 31 31 32 32 33 34 35 36 37 37 38 39 40 41 41 41 41 41 41 40 40 39 39 39 39 39 38 38 38 38 38 38 38 38 38 38 38 38 38 38 38 38 38 37 37 36 35 35 34 34 33 32 31 31 31 30 30 30 29 29 30 30 31 30 27 24 21 20 20
40 38 37 36 34 34 33 32 31 31 31 31 30 30 30 30 31 31 31 32 33 34 34 35 36 37 37 38 39 40 41 41 40 40 40 40 40 39 39 39 39 38 38 38 38 38 37 37 37 37 38 38 38 37 37 36 36 37 37 36 36 35 35 34 33 33 32 31 31 31 31 30 30 29 29 29 28 28 28 28 27 25 23 21 20
37 36 34 33 32 32 31 30 29 29 29 29 29 29 29 30 30 31 31 32 32 33 33 34 35 35 36 37 37 38 39 40 40 40 40 40 40 39 39 39 38 38 38 38 38 37 37 37 37 37 37 37 37 36 36 35 35 35 35 35 34 34 34 33 32 31 31 30 30 30 30 30 29 28 28 27 27 27 27 27 27 26 25 23 22
35 33 32 31 30 30 29 29 28 28 28 28 28 28 28 29 29 30 30 31 31 32 33 34 34 35 35 36 37 37 38 39 39 39 39 39 39 39 38 38 38 37 37 37 37 37 37 37 36 36 36 36 36 35 35 34 34 34 34 33 33 33 33 32 31 30 29 28 29 29 29 28 27 26 26 25 25 25 25 26 26 25 25 24 24
32 31 30 30 29 29 28 28 28 28 27 27 27 27 27 28 28 29 30 31 31 32 33 34 34 35 36 36 37 37 38 38 38 39 39 38 38 38 38 37 37 37 37 36 36 37 37 37 36 36 35 35 35 34 33 33 32 32 32 32 32 31 31 31 30 28 27 27 28 28 27 26 25 24 24 24 24 24 24 24 24 24 24 24 24
30 29 29 28 28 28 28 27 27 26 26 25 25 26 26 27 28 29 30 31 32 33 33 34 35 36 36 37 37 38 38 39 39 38 38 38 38 37 37 36 36 36 36 36 36 36 36 36 36 35 35 35 34 33 32 31 31 30 31 31 30 30 29 29 28 27 27 26 26 26 25 24 23 22 23 23 23 24 24 24 24 24 24 23 23
28 28 27 27 27 26 26 25 24 24 24 25 25 26 26 27 28 29 30 31 32 33 34 35 36 36 37 38 38 39 39 39 39 38 38 37 37 36 36 35 35 35 35 35 35 35 35 34 34 34 34 34 33 32 31 30 29 29 29 29 29 28 28 28 27 26 26 25 25 24 23 22 21 21 22 23 24 24 25 25 25 25 25 24 24
27 26 26 26 25 24 23 23 23 23 24 25 26 26 27 28 29 30 31 32 33 34 35 36 37 37 38 38 39 39 39 39 39 38 38 37 36 35 35 34 34 34 34 34 34 34 33 33 33 33 33 33 32 31 29 28 28 28 27 28 28 27 27 27 26 25 25 24 23 23 21 20 20 21 23 24 25 25 25 25 25 25 25 25 25
25 25 24 23 23 22 22 22 23 23 24 25 26 27 28 29 30 31 32 33 34 35 36 37 38 38 39 39 39 40 40 39 39 38 37 36 35 34 34 33 32 32 33 33 33 32 32 32 31 31 31 31 31 29 28 27 27 26 26 26 27 26 26 26 25 24 24 23 22 21 20 20 21 23 24 25 25 26 26 26 26 26 26 26 25
24 23 22 22 21 22 22 22 23 24 25 26 28 29 30 31 32 33 33 34 35 36 37 38 39 39 40 40 40 40 40 39 39 38 37 35 34 33 32 32 31 31 31 32 32 31 31 30 30 30 30 29 29 28 27 26 26 25 25 25 26 25 25 25 24 23 23 22 21 20 19 20 21 23 24 24 25 25 25 26 26 26 26 26 26
22 21 21 21 21 21 22 23 24 25 26 27 29 30 32 33 34 35 35 36 37 37 38 39 39 40 40 40 40 40 40 39 38 37 36 34 33 32 31 30 30 30 30 31 31 31 30 29 29 28 28 28 27 26 25 25 25 24 24 24 25 24 24 24 23 22 22 21 19 18 18 20 22 23 24 24 24 24 25 25 26 26 26 26 26
21 21 21 21 21 22 22 23 25 26 27 29 30 31 33 34 35 36 37 37 38 38 39 39 40 40 40 40 40 39 39 39 38 36 35 33 31 30 30 29 29 29 29 30 30 30 30 29 28 27 27 27 26 25 24 24 24 24 23 24 24 24 23 22 22 21 20 19 18 17 18 20 22 23 24 24 24 24 24 25 25 25 26 26 26
21 20 20 21 21 22 23 24 26 27 28 30 31 32 34 35 36 37 38 38 39 39 40 40 40 40 40 40 39 39 38 38 37 35 34 32 30 29 29 28 28 28 28 29 29 29 29 28 27 26 26 26 25 24 23 23 23 23 23 23 23 23 22 22 21 20 19 18 17 16 18 20 22 23 23 24 24 24 24 24 24 25 26 26 26
Wind_Direction
271 272 272 273 273 273 274 274 274 275 275 275 275 276 276 276 276 276 276 277 277 277 277 278 278 278 278 278 278 278 278 278 279 279 279 279 279 279 280 280 280 280 280 280 279 279 279 279 278 278 279 279 278 278 278 279 279 279 279 279 279 279 279 279 278 278 276 276 276 276 275 275 274 274 274 274 274 274 274 274 274 273 273 273 273
272 272 273 273 273 274 274 274 275 275 275 275 275 275 276 276 276 276 277 277 278 278 278 278 278 278 279 279 279 279 279 280 280 280 280 280 280 280 280 280 280 280 280 280 280 280 280 279 279 279 280 280 279 279 280 280 280 280 280 280 280 280 280 280 279 279 278 277 277 277 276 276 276 275 274 274 274 273 273 274 273 273 273 272 272
272 272 273 273 274 274 274 275 275 275 275 275 275 276 276 277 277 277 278 278 278 279 279 279 279 280 280 280 280 280 281 281 281 281 281 281 281 281 281 281 282 282 282 281 281 281 281 281 281 281 281 281 281 281 281 280 280 280 280 280 280 280 280 280 280 279 279 278 277 277 277 276 276 276 275 275 275 274 273 273 273 273 272 272 272
272 273 273 274 274 274 274 275 275 275 276 276 276 277 277 278 278 279 279 279 280 280 280 280 281 281 281 281 281 281 282 281 282 282 282 282 282 282 283 283 283 283 282 282 282 282 282 282 282 282 281 281 281 281 281 281 281 281 281 281 280 280 280 280 280 280 279 279 278 277 277 277 277 276 276 275 275 274 274 273 273 273 272 272 271
273 274 274 274 275 275 275 276 276 276 277 277 278 278 279 279 280 280 280 280 281 281 281 281 282 282 282 282 282 282 283 283 283 283 283 283 283 283 283 283 283 283 282 282 282 282 282 282 282 282 282 282 282 282 282 282 281 281 281 281 281 281 281 281 281 281 280 280 279 278 277 277 277 276 276 275 275 274 274 273 273 273 272 272 271
275 275 276 276 276 276 277 277 278 278 278 279 279 280 280 281 281 281 281 281 282 282 282 282 283 283 283 283 283 283 283 283 283 283 283 283 283 283 284 284 283 283 282 282 283 283 283 283 282 282 282 282 282 282 282 282 282 282 282 282 281 281 281 281 281 281 281 280 280 278 277 277 277 276 276 275 275 274 274 273 273 272 272 272 271
276 277 277 277 278 278 279 279 279 280 280 281 281 281 281 282 282 282 282 283 283 283 283 283 284 284 284 284 284 284 284 284 283 283 284 284 284 284 284 284 283 283 283 283 284 284 284 284 284 284 284 283 283 283 283 283 283 283 282 282 282 282 282 282 281 281 281 280 280 279 278 277 277 277 276 276 275 275 274 273 272 272 272 272 271
277 278 278 279 279 279 280 280 281 281 281 282 282 282 282 282 283 283 283 284 284 284 284 284 284 284 284 284 284 284 284 284 284 284 284 284 284 285 285 285 284 284 285 285 285 285 285 285 285 285 285 285 284 284 284 283 283 283 283 283 283 282 282 281 281 281 280 280 279 279 278 278 277 277 276 276 275 275 274 274 273 272 272 272 271
279 279 280 280 280 281 281 281 282 282 282 282 283 283 283 283 283 284 284 284 284 285 285 285 285 285 284 284 284 284 284 285 285 285 285 285 286 286 286 286 286 286 287 287 287 287 286 286 286 286 286 285 285 285 284 284 284 284 283 283 283 282 282 281 281 280 280 280 279 279 278 278 277 277 276 276 276 275 274 274 274 273 272 272 272
280 280 281 281 281 282 282 282 283 283 283 283 283 284 284 284 284 284 285 285 285 285 285 285 285 285 285 285 285 286 286 286 286 287 287 287 288 288 288 287 287 288 288 288 287 287 287 287 287 287 286 286 285 285 285 285 285 285 284 284 283 283 282 282 281 281 280 280 280 279 279 278 278 277 276 276 275 275 274 274 273 273 273 272 271
281 281 281 282 282 282 283 283 283 283 284 284 284 284 285 285 285 286 286 286 286 286 286 286 286 286 286 287 287 287 288 288 288 289 289 289 289 289 288 288 288 288 288 288 288 287 287 287 287 287 287 286 286 286 286 286 286 286 285 285 284 284 283 282 282 282 281 281 280 280 280 279 278 277 277 276 276 275 275 274 274 273 273 272 271
281 282 282 282 283 283 283 283 284 284 285 285 285 286 286 286 287 287 287 287 287 287 287 287 288 288 288 288 288 289 289 289 290 290 290 290 290 289 288 288 288 288 288 288 288 288 288 288 288 287 287 287 287 287 287 287 287 286 286 286 285 285 284 284 284 283 283 282 282 281 281 280 279 279 278 278 277 276 276 276 275 274 274 273 272
282 283 283 283 284 284 284 285 285 285 286 286 287 287 287 287 287 288 288 288 288 288 288 288 289 289 289 289 290 290 290 290 290 290 290 290 290 289 289 289 289 289 289 289 289 289 289 289 289 288 288 288 288 288 288 288 288 287 287 287 286 286 286 286 286 285 284 284 283 283 282 282 281 281 280 280 279 278 278 277 277 276 275 275 274
283 283 284 284 284 285 285 286 286 287 287 287 287 288 288 288 288 288 289 289 289 289 289 290 290 290 290 290 290 290 290 290 290 290 290 291 291 290 290 291 291 291 290 290 290 290 290 290 290 290 289 289 289 289 289 288 288 288 288 288 288 288 288 288 287 287 287 286 286 285 285 284 284 283 282 282 281 281 280 280 279 278 277 276 275
284 284 285 285 286 286 287 287 287 288 288 288 288 288 289 289 289 289 290 290 290 290 290 290 290 290 290 290 290 290 291 291 291 291 291 292 292 292 292 292 292 292 292 292 292 292 291 291 291 291 291 290 290 290 290 290 289 289 289 289 289 289 289 289 289 289 289 288 288 288 287 287 286 286 285 284 284 283 283 283 281 280 279 277 276
285 286 286 287 287 287 288 288 288 288 289 289 289 289 290 290 290 290 291 291 291 291 291 290 290 290 290 291 291 291 292 292 292 292 293 293 293 293 293 293 293 293 293 293 293 293 293 292 292 292 292 292 292 292 292 291 291 291 291 291 291 291 291 290 290 290 290 289 289 289 288 288 288 288 287 287 286 285 285 284 283 281 280 279 277
286 287 287 288 288 288 288 289 289 289 289 289 290 290 290 291 291 291 291 291 291 290 290 291 291 291 292 292 292 293 293 293 293 293 294 294 294 294 295 295 295 295 295 295 295 295 295 295 294 294 294 294 294 294 294 293 293 293 292 292 292 292 291 291 291 291 291 292 291 291 291 290 290 289 289 289 288 287 287 286 284 283 282 280 279
287 288 288 288 289 289 289 289 289 290 290 290 290 290 291 291 291 290 290 290 290 291 291 292 292 293 293 293 294 294 294 294 294 294 295 295 295 296 296 296 297 297 297 297 297 297 297 297 297 296 296 296 296 296 295 295 295 294 294 293 293 293 293 293 292 292 292 293 293 293 293 292 292 291 291 290 290 290 290 289 287 286 285 284 282
288 288 289 289 289 289 290 290 290 290 290 290 290 290 290 290 290 290 291 291 292 292 292 293 293 294 294 294 294 295 295 295 295 296 296 296 297 297 297 298 298 298 298 298 298 298 298 298 298 298 298 298 298 298 297 297 297 297 296 296 296 295 295 294 294 293 293 293 293 294 294 294 294 293 293 292 292 292 292 292 291 290 289 288 287
289 289 289 290 290 290 290 290 290 290 290 290 290 290 290 290 291 291 292 292 293 293 294 294 294 295 295 295 295 296 296 297 297 297 297 298 298 298 298 298 299 299 299 299 299 299 300 300 300 300 301 301 301 301 301 301 301 301 300 300 300 299 299 298 297 296 296 295 294 294 294 295 295 296 296 296 295 295 296 295 295 294 293 292 291
290 290 290 290 290 290 290 290 290 290 290 290 290 290 291 292 292 293 293 294 294 294 295 295 295 296 296 296 297 297 298 298 298 298 298 298 298 298 298 299 299 300 300 300 301 301 302 303 303 304 305 305 305 305 305 305 305 305 305 305 304 303 302 301 300 299 298 296 296 296 296 297 298 299 299 300 299 299 299 299 298 298 298 296 294
290 290 290 290 290 290 290 290 290 290 290 291 292 292 293 293 294 294 294 295 295 295 296 296 296 297 297 297 298 298 298 299 299 299 299 299 299 299 299 300 300 301 302 303 304 304 305 306 306 307 308 308 308 309 309 310 310 310 310 310 309 307 305 304 302 300 299 298 298 299 299 301 302 303 303 304 303 303 302 302 302 302 301 301 299
291 290 290 290 290 290 290 290 291 291 292 293 293 294 294 295 295 295 295 296 296 296 297 297 297 298 298 298 299 299 299 299 300 300 300 300 300 300 301 302 303 304 305 306 307 308 308 309 309 310 311 312 313 313 314 315 315 315 315 315 314 312 310 307 305 303 302 301 301 302 304 305 306 307 307 308 307 306 306 305 305 305 305 305 305
291 290 290 290 290 291 291 292 292 293 293 294 295 295 295 296 296 296 297 297 297 297 298 298 298 299 299 299 300 300 300 300 300 301 301 301 301 302 303 304 305 306 307 308 310 311 312 313 313 314 315 315 316 317 317 318 319 319 319 319 319 318 316 313 310 308 306 305 305 306 307 309 310 311 311 311 310 310 310 309 309 308 309 309 310
291 291 291 291 292 292 293 293 294 294 295 295 296 296 296 297 297 297 298 298 298 299 299 299 300 300 300 300 300 301 301 301 301 302 302 303 303 304 305 306 308 309 311 312 314 315 316 317 317 317 318 318 318 318 319 319 320 320 321 321 321 321 320 318 315 312 310 309 308 308 309 311 313 313 314 313 313 314 315 314 313 312 312 313 313
292 292 292 293 293 294 294 295 295 296 296 296 297 297 297 298 298 298 298 299 299 300 300 300 300 300 300 301 301 301 302 302 302 303 304 305 305 306 307 309 310 312 314 315 316 317 318 319 320 320 320 321 321 320 320 320 320 320 321 321 321 321 321 321 319 316 313 312 311 311 312 313 314 315 316 315 316 317 318 319 318 317 316 317 316
294 294 294 294 295 295 296 296 296 297 297 297 298 298 298 298 299 299 300 300 300 300 300 301 301 301 301 302 302 302 303 303 304 304 306 306 307 308 309 310 312 314 315 316 317 318 319 320 320 321 322 323 323 323 322 322 321 321 321 321 322 322 322 321 320 318 316 314 313 313 313 314 315 316 317 318 318 319 320 321 321 321 321 320 319
295 295 295 296 296 296 297 297 298 298 298 298 298 298 299 299 300 300 301 301 301 301 301 301 302 302 303 303 303 304 304 304 305 306 307 307 308 309 310 311 313 314 316 316 317 318 318 319 320 321 322 323 324 325 325 324 324 323 323 322 322 322 322 322 322 320 317 315 313 313 314 315 315 316 317 319 320 321 321 322 323 324 325 324 323
296 296 296 296 297 297 298 298 299 299 298 298 299 299 300 301 301 301 301 301 301 301 302 302 303 303 304 304 305 305 305 306 306 307 307 308 308 309 310 311 313 314 315 316 317 317 318 318 319 321 322 323 325 326 326 326 325 324 324 324 324 324 324 324 323 321 319 317 315 315 315 316 316 317 318 320 321 322 323 324 325 326 326 326 327
297 297 297 298 298 298 299 299 299 299 299 299 300 301 301 301 302 302 302 302 302 302 303 303 304 305 306 306 306 306 306 307 307 308 308 308 308 308 309 310 312 313 314 315 315 315 316 317 319 321 322 323 324 326 327 327 326 326 325 325 325 325 325 325 325 324 322 321 318 317 317 317 317 317 319 321 322 322 323 324 325 327 327 327 328
298 298 299 299 299 299 299 299 299 299 300 301 301 302 302 302 302 302 302 302 303 303 304 305 306 307 307 307 307 307 307 308 308 308 308 308 308 308 309 310 311 312 313 313 313 314 315 316 318 320 322 323 324 325 327 327 327 327 327 327 327 327 327 328 327 327 326 326 324 322 320 319 319 319 320 321 322 322 322 323 324 326 327 327 328
299 299 300 300 300 299 299 299 299 300 301 301 302 302 302 302 302 303 303 303 304 304 305 306 307 307 307 307 307 307 307 308 308 308 308 308 308 308 309 310 311 311 311 312 312 313 314 316 317 319 321 323 324 326 327 328 329 328 328 328 328 329 329 330 330 330 330 330 329 327 326 324 322 322 322 323 323 321 320 320 322 324 326 327 328
300 300 300 300 300 299 299 300 301 301 302 302 302 302 302 302 302 302 302 303 304 304 305 305 306 306 306 305 305 306 306 307 307 308 308 308 308 309 309 310 310 311 311 311 312 313 314 315 316 318 320 323 324 326 328 329 330 330 330 330 330 330 331 332 332 333 333 333 332 331 330 329 327 327 327 327 327 324 321 318 318 321 324 326 328
301 300 300 300 300 300 301 301 302 302 302 302 302 302 302 302 302 301 301 301 301 301 302 302 303 303 302 302 302 303 304 305 306 306 307 308 308 309 309 309 310 310 311 312 312 313 314 315 316 318 320 322 324 326 328 330 331 331 331 332 332 332 333 334 334 335 335 335 335 335 335 334 333 333 333 333 333 331 327 321 317 318 322 324 327
301 301 300 301 301 301 302 302 302 302 302 303 303 303 303 302 302 302 302 302 302 301 301 301 301 301 301 301 301 301 302 303 305 306 307 307 308 308 308 309 310 310 311 312 312 313 314 315 316 317 319 322 324 327 328 330 332 333 333 333 333 333 334 335 336 336 337 337 338 338 338 338 337 337 338 338 338 338 334 328 320 318 320 324 327
301 301 301 302 302 302 302 302 302 303 303 303 304 303 303 303 303 303 303 303 303 303 303 303 302 302 302 301 301 301 301 302 303 304 305 306 307 307 308 308 309 309 310 311 312 313 314 315 316 317 319 321 325 327 329 331 333 334 334 334 334 334 335 336 337 337 337 337 338 339 339 340 341 342 342 343 344 344 343 338 329 322 321 325 328
302 302 302 302 303 303 302 303 303 304 304 304 304 304 304 304 304 304 304 304 304 304 304 304 304 304 303 303 302 302 302 302 303 303 304 305 306 307 307 307 308 309 310 311 312 314 315 316 317 318 319 321 324 327 328 331 333 334 335 335 335 335 335 335 336 336 336 337 338 339 340 342 343 345 346 347 348 350 350 347 340 331 327 328 330
302 302 303 303 303 303 303 303 304 304 304 304 305 305 305 305 305 305 305 305 305 305 305 305 304 304 304 304 304 304 304 303 304 304 304 305 305 306 307 308 308 309 310 311 313 314 315 316 317 318 319 321 324 327 328 331 333 335 335 335 335 335 335 335 335 336 337 338 339 340 341 342 344 346 347 349 351 353 355 355 351 343 335 333 334
303 303 302 302 303 303 304 304 304 305 305 306 306 306 307 307 307 307 306 306 306 306 306 306 306 306 306 305 305 306 305 305 305 305 305 305 306 306 307 308 309 310 310 311 313 314 315 316 317 318 319 321 324 327 329 330 332 334 335 336 336 336 335 335 334 335 337 339 340 341 342 343 345 346 349 351 353 356 358 360 360 356 348 341 339
303 302 302 302 303 304 305 305 305 306 306 307 307 307 308 308 308 309 309 309 309 308 308 308 308 308 308 308 307 307 307 307 308 307 307 307 307 307 307 308 308 309 310 311 312 313 314 316 317 318 319 321 324 326 328 330 332 334 335 336 336 336 336 335 334 335 337 339 341 342 343 344 346 348 350 352 354 356 359 1 3 4 1 355 350
302 302 302 303 303 304 305 305 305 306 307 307 308 309 309 310 311 311 311 312 312 312 312 312 311 311 311 311 310 310 309 309 309 309 309 308 308 308 308 307 308 308 309 310 311 312 313 315 317 318 319 321 323 326 327 329 331 333 334 336 336 336 336 335 334 335 337 340 342 343 344 345 347 349 351 352 354 357 359 1 2 4 5 4 1
302 302 302 303 304 304 305 305 306 307 307 308 309 310 311 312 313 314 315 315 315 315 315 315 315 314 314 314 313 312 312 311 311 310 310 309 308 308 308 307 307 307 308 308 309 311 312 314 316 317 319 320 322 325 326 328 330 332 334 335 336 336 336 336 335 336 338 340 341 343 345 347 348 350 352 355 357 359 1 2 2 3 3 3 2
301 301 302 303 304 305 305 306 307 308 309 310 312 313 315 316 316 317 317 317 317 317 317 317 317 316 316 316 315 314 314 313 312 311 311 310 309 308 307 307 307 307 307 307 308 309 310 312 314 316 317 319 321 323 325 326 328 330 332 334 336 336 337 337 337 337 339 341 342 344 346 348 350 353 357 359 0 1 2 2 2 2 2 2 1
300 301 302 303 304 305 306 307 308 309 311 313 314 316 317 318 318 319 319 319 319 318 318 318 318 318 317 317 316 316 315 314 313 313 312 311 309 308 308 308 308 308 308 307 307 307 308 310 312 314 316 317 319 322 323 325 327 329 331 333 335 336 337 338 338 339 340 342 344 345 346 348 352 356 359 360 360 360 0 0 0 0 0 0 0
300 301 302 303 304 305 306 307 309 311 313 314 316 318 319 319 320 320 320 320 320 320 319 319 319 319 318 318 317 316 316 315 314 313 312 311 310 309 308 308 308 309 309 309 308 308 308 309 310 312 314 316 318 320 322 324 325 327 330 332 333 335 337 339 340 341 342 343 344 344 346 349 352 355 356 356 356 357 357 357 358 358 358 358 358
300 301 302 303 303 305 306 308 310 312 314 316 318 319 320 320 321 321 321 321 321 320 320 320 319 319 318 318 317 317 316 315 315 314 313 312 311 310 309 308 308 309 310 310 310 310 309 309 309 310 312 314 316 319 320 322 324 326 329 331 332 334 336 338 340 342 342 342 343 344 346 348 350 352 353 353 353 353 353 354 355 355 356 356 356
299 300 301 302 303 304 307 309 312 314 316 318 319 320 320 320 321 321 321 321 321 320 320 320 319 319 318 318 317 317 316 315 315 314 313 313 311 310 309 309 308 309 310 311 311 311 310 309 309 309 310 312 315 317 318 320 322 324 327 330 332 333 335 338 341 342 342 342 343 344 345 346 347 350 351 350 349 350 351 352 354 354 354 354 354
299 299 300 301 303 305 308 311 313 315 317 318 319 320 320 320 320 321 321 321 321 320 320 320 319 319 318 318 317 316 316 315 315 315 314 313 312 311 310 309 309 309 309 310 312 312 311 310 309 308 309 311 313 315 316 318 320 322 326 330 332 333 335 337 340 343 343 343 343 344 344 344 346 348 348 347 347 349 351 353 354 355 355 354 354
298 298 299 301 303 306 309 312 314 316 317 319 319 320 320 320 321 321 321 321 321 321 321 320 320 319 319 318 317 316 316 315 315 315 314 313 312 311 310 309 309 308 309 310 312 313 312 310 309 308 309 310 312 314 315 316 318 321 324 328 331 333 334 336 340 343 343 343 344 343 342 343 345 346 346 345 346 349 353 355 357 357 357 356 356
296 297 299 301 304 307 310 312 314 316 318 319 319 320 320 320 321 321 321 321 321 321 321 321 320 320 319 318 317 316 316 315 315 315 314 313 312 311 310 310 309 308 309 310 313 314 313 311 309 308 308 310 312 313 313 315 317 319 323 327 330 332 333 335 338 341 342 343 343 341 341 342 344 345 344 344 346 351 354 357 359 359 359 358 358
295 296 299 302 305 307 310 312 314 316 318 318 319 320 320 321 321 321 321 321 322 322 322 322 321 320 319 318 317 317 316 315 315 315 314 313 312 311 310 309 308 308 308 310 313 315 315 313 310 309 309 310 311 312 313 314 316 319 322 326 329 332 333 334 336 339 340 341 340 339 340 342 343 344 344 345 347 350 354 357 359 1 1 1 1
Height
5568 5567 5566 5566 5564 5564 5562 5561 5560 5558 5558 5556 5555 5554 5552 5551 5550 5548 5546 5544 5542 5542 5540 5539 5537 5535 5534 5532 5530 5528 5526 5524 5522 5520 5518 5516 5514 5512 5510 5508 5506 5504 5501 5498 5496 5493 5490 5488 5486 5484 5482 5480 5477 5474 5471 5470 5467 5464 5460 5458 5456 5452 5450 5448 5446 5456 5468 5463 5456 5459 5452 5444 5451 5452 5442 5442 5448 5444 5437 5438 5440 5438 5439 5440 5442
5560 5559 5558 5557 5556 5555 5554 5552 5551 5550 5549 5548 5546 5544 5543 5542 5540 5538 5538 5536 5534 5532 5531 5530 5528 5526 5524 5522 5520 5518 5516 5514 5511 5509 5507 5504 5503 5501 5499 5497 5494 5492 5490 5486 5483 5480 5476 5474 5473 5472 5470 5466 5463 5461 5458 5457 5453 5450 5448 5444 5442 5440 5434 5432 5431 5434 5445 5450 5442 5438 5437 5428 5428 5436 5430 5422 5428 5430 5424 5421 5422 5422 5422 5423 5425
5552 5551 5550 5549 5548 5547 5546 5544 5543 5542 5540 5539 5538 5536 5534 5533 5532 5530 5528 5527 5525 5524 5522 5520 5518 5516 5514 5512 5509 5508 5506 5503 5500 5498 5496 5494 5492 5490 5488 5486 5482 5480 5476 5472 5468 5465 5462 5462 5460 5458 5456 5452 5450 5448 5444 5442 5439 5435 5434 5430 5426 5426 5422 5416 5416 5416 5420 5432 5431 5422 5419 5414 5409 5413 5414 5407 5406 5410 5408 5404 5404 5404 5406 5406 5406
5544 5543 5542 5541 5540 5539 5538 5536 5535 5534 5532 5530 5529 5528 5526 5524 5523 5521 5520 5518 5516 5514 5512 5511 5508 5506 5504 5501 5499 5498 5494 5492 5490 5487 5485 5484 5481 5479 5476 5474 5470 5466 5463 5458 5454 5452 5450 5450 5448 5445 5443 5440 5436 5434 5430 5427 5425 5422 5419 5417 5412 5410 5408 5402 5400 5400 5400 5408 5415 5409 5402 5398 5394 5392 5395 5392 5388 5388 5389 5388 5386 5386 5388 5388 5386
5536 5536 5534 5534 5532 5531 5530 5528 5528 5526 5524 5522 5520 5519 5518 5516 5514 5512 5510 5509 5507 5504 5503 5502 5498 5496 5494 5491 5488 5486 5484 5481 5478 5476 5474 5472 5470 5468 5466 5463 5458 5454 5448 5444 5442 5441 5440 5436 5434 5431 5429 5426 5423 5420 5416 5412 5410 5408 5404 5402 5398 5394 5392 5389 5385 5384 5383 5386 5392 5394 5386 5380 5376 5374 5374 5373 5372 5370 5369 5369 5368 5366 5367 5368 5368
5530 5528 5527 5526 5524 5523 5522 5520 5519 5518 5516 5514 5512 5510 5509 5507 5505 5504 5502 5500 5498 5496 5493 5492 5489 5486 5484 5481 5478 5476 5472 5470 5467 5464 5462 5460 5458 5456 5454 5450 5445 5439 5434 5432 5431 5429 5426 5422 5420 5418 5414 5412 5410 5406 5403 5399 5395 5392 5390 5386 5384 5380 5377 5375 5371 5368 5366 5366 5368 5372 5370 5364 5358 5355 5355 5352 5351 5352 5350 5350 5350 5348 5346 5348 5350
5522 5521 5520 5518 5516 5515 5514 5512 5510 5509 5507 5506 5504 5502 5500 5498 5496 5494 5492 5490 5488 5486 5484 5481 5479 5476 5472 5470 5468 5464 5462 5458 5456 5454 5451 5449 5447 5446 5443 5437 5430 5424 5422 5422 5420 5416 5412 5408 5405 5403 5400 5397 5395 5392 5388 5386 5381 5378 5374 5371 5368 5366 5362 5360 5356 5352 5349 5348 5348 5348 5350 5348 5341 5336 5336 5334 5331 5332 5331 5328 5330 5333 5330 5328 5331
5514 5513 5512 5510 5508 5507 5506 5504 5502 5500 5498 5497 5496 5494 5492 5490 5488 5485 5483 5481 5478 5476 5474 5471 5468 5465 5462 5459 5456 5454 5450 5448 5444 5442 5439 5437 5436 5434 5430 5422 5415 5412 5412 5410 5406 5402 5398 5395 5391 5388 5386 5382 5380 5377 5373 5370 5366 5364 5360 5356 5353 5350 5346 5342 5338 5334 5332 5330 5329 5328 5328 5328 5325 5318 5315 5314 5312 5312 5312 5306 5307 5314 5314 5310 5311
5507 5506 5504 5502 5501 5499 5498 5496 5494 5492 5490 5488 5486 5484 5482 5480 5478 5476 5474 5472 5470 5466 5464 5461 5457 5454 5450 5448 5444 5442 5439 5436 5432 5430 5427 5425 5424 5422 5415 5407 5402 5402 5400 5396 5394 5389 5384 5381 5378 5374 5371 5368 5364 5361 5357 5354 5352 5350 5346 5342 5337 5332 5328 5325 5321 5318 5314 5312 5311 5310 5308 5309 5307 5300 5296 5295 5292 5291 5293 5289 5285 5290 5293 5292 5293
5500 5498 5496 5494 5493 5491 5490 5488 5486 5484 5482 5480 5478 5476 5474 5471 5469 5467 5464 5462 5460 5456 5454 5450 5446 5442 5438 5436 5433 5430 5427 5424 5420 5418 5414 5412 5414 5410 5400 5392 5391 5390 5388 5384 5380 5376 5371 5368 5364 5360 5356 5352 5348 5345 5342 5340 5337 5334 5330 5325 5320 5315 5311 5307 5304 5300 5297 5296 5294 5291 5290 5290 5287 5281 5277 5276 5271 5269 5272 5270 5266 5268 5270 5270 5274
5492 5490 5488 5486 5485 5484 5482 5480 5477 5475 5473 5470 5468 5466 5464 5462 5459 5457 5454 5452 5449 5446 5442 5439 5434 5430 5426 5423 5421 5418 5415 5412 5408 5405 5400 5398 5401 5396 5385 5380 5380 5377 5374 5372 5366 5362 5359 5354 5350 5346 5342 5337 5334 5330 5328 5326 5322 5318 5313 5307 5301 5296 5292 5288 5286 5283 5279 5277 5276 5272 5269 5268 5266 5262 5256 5254 5250 5248 5250 5250 5248 5247 5247 5247 5250
5484 5482 5480 5478 5477 5475 5473 5471 5468 5466 5464 5462 5459 5456 5454 5452 5448 5446 5444 5441 5438 5435 5432 5428 5423 5418 5414 5412 5410 5406 5404 5400 5396 5392 5388 5386 5386 5381 5372 5370 5370 5364 5361 5358 5353 5350 5346 5342 5336 5332 5326 5322 5319 5317 5314 5310 5306 5302 5296 5290 5284 5278 5273 5270 5267 5264 5260 5258 5256 5254 5248 5244 5245 5244 5237 5232 5230 5229 5230 5231 5229 5226 5226 5224 5224
5476 5474 5472 5470 5468 5466 5464 5462 5460 5457 5454 5452 5450 5446 5444 5442 5438 5436 5434 5430 5428 5424 5420 5416 5412 5407 5402 5400 5398 5396 5392 5388 5384 5380 5376 5374 5372 5364 5360 5360 5357 5352 5348 5344 5340 5336 5332 5328 5323 5316 5312 5308 5305 5303 5300 5296 5292 5286 5280 5274 5268 5262 5258 5254 5248 5245 5242 5239 5238 5237 5231 5224 5226 5226 5220 5213 5210 5210 5212 5212 5212 5208 5205 5204 5202
5468 5466 5464 5462 5460 5458 5456 5453 5450 5448 5445 5442 5440 5436 5434 5432 5428 5426 5423 5420 5416 5414 5410 5406 5402 5396 5392 5388 5386 5384 5380 5376 5374 5370 5366 5364 5358 5350 5347 5346 5342 5338 5335 5330 5326 5323 5318 5313 5308 5302 5297 5293 5291 5289 5285 5281 5277 5272 5266 5260 5254 5250 5244 5240 5235 5230 5225 5221 5218 5220 5216 5208 5207 5208 5204 5196 5192 5192 5194 5196 5195 5190 5186 5185 5184
5460 5458 5456 5453 5451 5448 5446 5444 5440 5438 5435 5432 5430 5426 5424 5421 5418 5415 5412 5409 5406 5402 5398 5394 5390 5386 5380 5378 5376 5374 5370 5366 5362 5358 5354 5352 5345 5337 5334 5333 5328 5324 5320 5316 5313 5308 5303 5298 5294 5288 5283 5278 5276 5274 5270 5268 5264 5258 5253 5248 5242 5238 5233 5228 5224 5218 5212 5207 5204 5203 5200 5195 5191 5190 5187 5182 5176 5176 5178 5178 5176 5170 5168 5167 5165
5452 5449 5446 5444 5442 5440 5436 5434 5431 5428 5425 5422 5419 5416 5414 5411 5408 5404 5402 5398 5394 5392 5388 5384 5380 5376 5370 5366 5364 5362 5358 5354 5350 5346 5343 5340 5332 5324 5322 5320 5315 5310 5306 5302 5299 5294 5289 5285 5280 5275 5270 5265 5262 5260 5256 5254 5252 5246 5242 5238 5232 5228 5222 5217 5213 5206 5200 5196 5192 5189 5186 5182 5179 5176 5172 5167 5162 5160 5164 5163 5156 5151 5150 5149 5146
5444 5440 5438 5436 5432 5430 5427 5424 5421 5418 5415 5412 5409 5406 5404 5400 5398 5394 5392 5388 5384 5381 5378 5374 5370 5366 5360 5356 5353 5350 5347 5343 5339 5334 5331 5328 5322 5312 5309 5306 5302 5298 5294 5290 5286 5280 5275 5272 5268 5264 5258 5253 5250 5248 5244 5242 5239 5234 5230 5227 5222 5218 5213 5208 5203 5197 5190 5185 5180 5176 5172 5170 5166 5164 5160 5154 5148 5145 5148 5147 5140 5134 5132 5130 5128
5435 5432 5429 5426 5424 5421 5418 5414 5412 5408 5405 5402 5399 5396 5394 5390 5388 5384 5382 5378 5375 5372 5368 5364 5360 5355 5350 5346 5342 5339 5336 5332 5328 5323 5319 5316 5311 5302 5297 5294 5290 5286 5282 5278 5273 5268 5264 5260 5256 5252 5248 5244 5240 5236 5233 5230 5227 5222 5220 5217 5213 5208 5204 5198 5194 5188 5183 5177 5170 5165 5160 5156 5154 5150 5147 5143 5136 5132 5132 5130 5124 5120 5117 5114 5112
5426 5424 5420 5418 5414 5412 5408 5405 5402 5399 5396 5392 5390 5387 5384 5381 5378 5375 5372 5368 5365 5362 5358 5354 5350 5345 5340 5336 5331 5328 5324 5320 5316 5312 5308 5304 5300 5293 5287 5284 5280 5276 5272 5268 5264 5260 5255 5250 5246 5243 5239 5235 5230 5226 5223 5220 5216 5212 5209 5206 5204 5199 5194 5190 5185 5180 5176 5170 5164 5158 5152 5146 5142 5139 5135 5132 5127 5122 5119 5115 5110 5106 5104 5100 5098
5418 5414 5412 5408 5405 5402 5399 5396 5392 5390 5386 5383 5380 5378 5375 5372 5369 5366 5362 5358 5354 5352 5348 5344 5340 5335 5330 5326 5320 5316 5312 5309 5305 5301 5296 5292 5290 5284 5279 5276 5272 5267 5264 5260 5256 5252 5247 5242 5238 5234 5230 5227 5222 5218 5214 5210 5206 5202 5199 5196 5193 5189 5184 5180 5175 5170 5166 5162 5156 5152 5146 5140 5135 5130 5126 5122 5117 5113 5109 5104 5099 5094 5091 5089 5086
5408 5406 5402 5400 5396 5393 5390 5387 5384 5380 5377 5374 5371 5368 5366 5362 5360 5356 5352 5348 5344 5341 5338 5334 5329 5325 5320 5315 5310 5306 5302 5298 5294 5291 5287 5283 5280 5276 5272 5268 5264 5260 5256 5253 5250 5245 5240 5236 5232 5228 5224 5220 5216 5211 5206 5202 5198 5194 5190 5186 5183 5180 5176 5172 5166 5162 5158 5153 5148 5144 5138 5134 5128 5123 5118 5114 5108 5104 5100 5096 5090 5086 5081 5078 5076
5400 5396 5394 5390 5388 5384 5381 5378 5374 5371 5368 5364 5361 5358 5356 5352 5350 5346 5342 5338 5335 5331 5328 5324 5319 5315 5310 5306 5301 5297 5292 5289 5286 5282 5278 5274 5271 5268 5264 5261 5258 5254 5250 5246 5243 5240 5236 5231 5226 5222 5218 5214 5210 5206 5201 5196 5192 5188 5184 5180 5176 5172 5168 5164 5159 5154 5150 5145 5141 5136 5131 5126 5122 5116 5112 5107 5102 5097 5092 5088 5083 5078 5073 5069 5065
5391 5388 5385 5382 5379 5376 5372 5369 5366 5362 5358 5355 5352 5348 5346 5342 5340 5336 5332 5328 5325 5321 5317 5313 5309 5305 5301 5296 5292 5288 5284 5280 5277 5274 5270 5266 5262 5260 5257 5254 5251 5248 5244 5241 5238 5234 5230 5226 5222 5218 5213 5208 5204 5200 5196 5191 5186 5182 5178 5174 5169 5164 5160 5156 5151 5147 5142 5138 5134 5129 5124 5120 5116 5110 5106 5101 5096 5091 5086 5082 5076 5071 5066 5062 5057
5383 5380 5376 5374 5370 5367 5364 5360 5357 5354 5350 5346 5342 5339 5336 5333 5330 5326 5322 5318 5315 5311 5307 5303 5300 5296 5292 5288 5284 5280 5276 5274 5270 5266 5262 5259 5256 5252 5250 5248 5246 5242 5239 5236 5233 5230 5226 5222 5217 5213 5208 5204 5198 5194 5190 5186 5181 5176 5172 5167 5162 5158 5153 5148 5144 5140 5135 5131 5127 5122 5118 5114 5110 5104 5100 5095 5090 5086 5081 5076 5070 5066 5062 5058 5052
5374 5372 5368 5365 5362 5358 5356 5352 5348 5345 5341 5338 5334 5330 5326 5324 5320 5316 5312 5308 5305 5302 5298 5294 5290 5287 5284 5280 5277 5274 5270 5266 5264 5260 5256 5252 5250 5246 5244 5242 5240 5237 5234 5230 5228 5224 5220 5216 5212 5208 5204 5200 5194 5190 5184 5180 5176 5171 5166 5162 5157 5152 5147 5142 5136 5132 5128 5124 5120 5116 5112 5108 5104 5099 5094 5090 5084 5080 5076 5071 5066 5060 5056 5053 5048
5366 5363 5360 5356 5353 5350 5346 5343 5340 5336 5332 5329 5325 5321 5317 5314 5310 5307 5304 5300 5296 5292 5289 5286 5282 5279 5276 5273 5270 5267 5264 5260 5257 5254 5251 5248 5244 5241 5238 5236 5234 5232 5228 5226 5222 5218 5215 5211 5207 5202 5198 5194 5190 5185 5180 5176 5171 5166 5162 5157 5152 5147 5142 5137 5132 5126 5122 5118 5114 5110 5106 5102 5098 5094 5089 5085 5080 5076 5072 5068 5062 5057 5052 5049 5045
5358 5354 5351 5348 5344 5341 5338 5334 5331 5327 5324 5320 5316 5312 5308 5305 5302 5298 5294 5291 5288 5284 5281 5278 5275 5272 5270 5266 5264 5261 5258 5254 5252 5249 5246 5242 5239 5236 5234 5231 5228 5226 5223 5220 5216 5213 5210 5206 5202 5198 5194 5189 5185 5180 5176 5172 5167 5162 5158 5152 5148 5143 5138 5132 5127 5122 5117 5113 5108 5105 5102 5098 5094 5090 5084 5080 5076 5072 5068 5064 5060 5054 5050 5046 5042
5350 5346 5343 5340 5336 5333 5330 5326 5322 5318 5314 5311 5308 5304 5300 5296 5293 5290 5286 5283 5280 5277 5274 5271 5268 5266 5263 5260 5257 5254 5252 5250 5246 5244 5242 5238 5235 5232 5229 5226 5224 5221 5218 5215 5212 5208 5204 5201 5197 5193 5188 5184 5180 5176 5171 5166 5162 5158 5153 5148 5144 5138 5134 5128 5122 5117 5112 5108 5104 5100 5096 5092 5089 5086 5081 5076 5072 5068 5064 5060 5056 5052 5048 5044 5040
5342 5338 5336 5332 5329 5326 5322 5318 5314 5310 5306 5303 5300 5296 5292 5288 5285 5282 5279 5276 5273 5270 5268 5265 5262 5260 5257 5254 5252 5248 5246 5244 5242 5240 5237 5234 5232 5228 5225 5222 5219 5216 5214 5211 5208 5204 5200 5196 5193 5189 5184 5180 5176 5172 5166 5162 5157 5152 5148 5144 5140 5134 5130 5124 5119 5113 5108 5103 5099 5096 5092 5088 5085 5082 5078 5073 5068 5064 5061 5058 5054 5050 5046 5042 5038
5334 5331 5328 5324 5321 5318 5314 5310 5307 5303 5299 5295 5292 5288 5285 5282 5278 5275 5272 5269 5266 5264 5262 5259 5256 5254 5251 5248 5246 5244 5241 5239 5237 5234 5232 5230 5228 5225 5222 5218 5216 5212 5210 5207 5204 5200 5196 5192 5189 5185 5181 5177 5172 5168 5164 5158 5154 5148 5144 5140 5136 5130 5126 5120 5115 5110 5104 5099 5095 5092 5088 5084 5081 5078 5074 5070 5066 5062 5058 5054 5050 5047 5044 5040 5036
5326 5323 5320 5316 5314 5310 5306 5303 5300 5296 5292 5288 5284 5281 5278 5274 5272 5269 5266 5263 5260 5258 5256 5253 5251 5248 5246 5243 5241 5239 5236 5234 5232 5230 5228 5226 5223 5220 5218 5215 5212 5209 5206 5203 5200 5196 5192 5188 5185 5182 5178 5174 5170 5165 5160 5156 5150 5146 5140 5135 5130 5126 5122 5116 5111 5106 5100 5096 5091 5088 5084 5081 5078 5074 5070 5067 5063 5059 5055 5051 5048 5044 5040 5037 5034
5319 5316 5312 5309 5306 5302 5299 5296 5292 5289 5286 5282 5279 5276 5272 5269 5266 5264 5260 5258 5255 5252 5250 5248 5246 5244 5242 5239 5236 5234 5232 5230 5228 5226 5224 5221 5218 5216 5214 5210 5208 5204 5202 5198 5196 5192 5188 5184 5181 5178 5174 5170 5166 5161 5156 5152 5147 5142 5137 5132 5126 5122 5118 5113 5108 5102 5098 5093 5088 5084 5081 5078 5074 5070 5067 5064 5060 5056 5052 5048 5044 5042 5038 5034 5031
5312 5308 5305 5302 5298 5295 5292 5288 5285 5282 5279 5276 5273 5270 5268 5264 5262 5259 5256 5254 5251 5248 5246 5244 5242 5240 5238 5236 5234 5230 5228 5226 5224 5222 5219 5217 5214 5212 5209 5206 5204 5200 5198 5194 5191 5188 5184 5180 5177 5173 5170 5166 5162 5157 5152 5148 5143 5138 5133 5128 5124 5119 5114 5109 5104 5100 5094 5090 5086 5082 5078 5074 5071 5068 5064 5060 5056 5052 5048 5044 5042 5038 5036 5032 5029
5304 5301 5298 5294 5291 5288 5284 5282 5278 5276 5272 5270 5268 5264 5262 5260 5257 5255 5252 5250 5248 5246 5243 5241 5238 5236 5234 5232 5230 5228 5225 5222 5220 5218 5215 5212 5210 5207 5204 5202 5198 5196 5193 5190 5186 5183 5180 5176 5172 5168 5165 5161 5158 5153 5148 5144 5140 5134 5130 5124 5120 5116 5111 5106 5102 5097 5092 5088 5084 5080 5076 5072 5068 5065 5061 5057 5053 5048 5044 5040 5038 5036 5033 5030 5028
5298 5294 5290 5288 5284 5281 5278 5275 5272 5270 5267 5264 5262 5260 5257 5254 5252 5250 5248 5246 5244 5242 5240 5238 5236 5234 5231 5229 5227 5224 5222 5219 5216 5214 5211 5208 5206 5202 5200 5196 5194 5190 5188 5185 5182 5178 5176 5172 5168 5164 5160 5156 5153 5149 5144 5140 5136 5131 5126 5122 5116 5112 5108 5104 5099 5094 5090 5086 5082 5078 5074 5070 5066 5063 5059 5055 5050 5046 5042 5038 5034 5032 5030 5028 5026
5290 5286 5284 5280 5278 5274 5272 5269 5266 5264 5262 5260 5257 5254 5252 5250 5248 5246 5244 5241 5238 5236 5234 5232 5230 5228 5226 5224 5222 5220 5218 5215 5212 5209 5206 5204 5201 5198 5195 5192 5189 5186 5183 5180 5177 5174 5171 5168 5164 5160 5156 5152 5148 5144 5140 5136 5132 5128 5123 5118 5114 5110 5106 5101 5097 5092 5088 5084 5080 5076 5072 5068 5065 5061 5057 5053 5048 5044 5040 5035 5032 5030 5028 5026 5024
5283 5280 5277 5274 5272 5269 5266 5264 5262 5259 5256 5254 5252 5250 5248 5246 5244 5241 5239 5236 5234 5232 5230 5228 5226 5224 5221 5219 5217 5215 5212 5210 5208 5204 5202 5198 5196 5193 5190 5187 5184 5181 5178 5175 5172 5169 5166 5163 5160 5156 5152 5148 5144 5141 5137 5133 5129 5124 5120 5116 5112 5108 5103 5099 5095 5092 5087 5082 5078 5074 5071 5067 5064 5060 5056 5052 5048 5043 5038 5034 5031 5028 5026 5025 5023
5276 5274 5271 5268 5266 5264 5261 5259 5256 5254 5252 5250 5248 5246 5244 5242 5239 5237 5234 5232 5230 5228 5226 5223 5220 5218 5216 5214 5211 5208 5206 5204 5202 5199 5196 5194 5190 5188 5184 5182 5178 5176 5173 5170 5167 5164 5161 5158 5155 5152 5148 5144 5141 5137 5134 5130 5126 5122 5118 5113 5109 5105 5101 5097 5093 5090 5086 5082 5078 5074 5070 5066 5062 5059 5055 5052 5048 5043 5038 5034 5030 5028 5026 5024 5022
5271 5268 5266 5263 5261 5258 5256 5254 5252 5250 5248 5246 5243 5241 5239 5237 5235 5232 5230 5228 5226 5224 5221 5218 5216 5214 5211 5208 5206 5202 5200 5198 5196 5192 5190 5188 5185 5182 5180 5176 5174 5170 5168 5165 5162 5160 5156 5154 5150 5147 5144 5140 5137 5134 5130 5126 5122 5118 5115 5110 5106 5102 5099 5095 5091 5088 5084 5080 5076 5072 5069 5066 5062 5058 5054 5051 5047 5043 5039 5035 5032 5028 5026 5023 5021
5266 5263 5260 5258 5256 5254 5252 5250 5248 5246 5243 5241 5239 5237 5235 5233 5231 5228 5226 5224 5222 5219 5216 5214 5212 5209 5206 5204 5201 5198 5194 5192 5190 5187 5184 5181 5178 5176 5174 5171 5168 5166 5162 5160 5157 5154 5152 5150 5146 5143 5140 5136 5134 5130 5126 5123 5120 5116 5112 5108 5104 5100 5096 5093 5089 5086 5082 5078 5075 5072 5068 5064 5061 5057 5054 5050 5047 5044 5040 5036 5032 5029 5026 5023 5020
5260 5258 5256 5254 5252 5250 5248 5246 5244 5242 5240 5238 5235 5233 5231 5229 5226 5224 5222 5220 5218 5214 5212 5210 5207 5204 5202 5199 5196 5193 5190 5187 5184 5182 5178 5176 5173 5170 5168 5166 5163 5160 5158 5155 5152 5150 5148 5145 5142 5139 5136 5133 5130 5126 5123 5120 5116 5113 5110 5106 5102 5098 5094 5090 5087 5084 5080 5077 5074 5070 5067 5064 5060 5057 5054 5050 5046 5043 5040 5036 5033 5030 5027 5024 5021
5256 5254 5252 5250 5248 5246 5244 5242 5240 5238 5236 5234 5232 5230 5227 5225 5222 5220 5218 5216 5213 5210 5208 5206 5202 5200 5198 5194 5192 5188 5186 5182 5180 5176 5174 5171 5168 5166 5163 5160 5158 5156 5153 5150 5148 5145 5142 5140 5138 5135 5132 5129 5126 5123 5120 5116 5114 5110 5107 5104 5100 5096 5092 5089 5086 5082 5079 5076 5072 5070 5066 5062 5060 5056 5053 5050 5046 5044 5040 5037 5034 5030 5028 5024 5022
5251 5249 5247 5246 5244 5242 5240 5238 5236 5234 5232 5230 5228 5226 5224 5222 5219 5217 5214 5212 5210 5207 5204 5202 5198 5196 5193 5190 5188 5184 5181 5178 5175 5172 5169 5166 5164 5161 5158 5156 5153 5151 5148 5146 5144 5141 5138 5136 5133 5131 5128 5126 5122 5120 5117 5114 5111 5108 5104 5101 5098 5094 5091 5088 5084 5080 5078 5074 5072 5068 5065 5062 5059 5056 5053 5050 5046 5044 5040 5038 5034 5032 5028 5026 5022
5247 5245 5244 5242 5240 5238 5236 5234 5232 5230 5228 5226 5224 5222 5220 5218 5216 5214 5211 5208 5206 5203 5200 5198 5194 5192 5188 5186 5183 5180 5176 5174 5170 5168 5164 5162 5158 5156 5154 5151 5148 5146 5144 5142 5139 5136 5134 5132 5129 5126 5124 5122 5119 5116 5114 5111 5108 5105 5102 5098 5096 5092 5090 5086 5082 5079 5076 5073 5070 5068 5064 5062 5058 5056 5052 5050 5047 5044 5041 5038 5035 5032 5029 5026 5024
5243 5241 5240 5238 5236 5234 5232 5230 5229 5227 5226 5224 5222 5220 5218 5215 5212 5210 5208 5205 5202 5200 5196 5194 5190 5188 5184 5182 5178 5175 5172 5169 5166 5162 5160 5157 5154 5152 5149 5146 5144 5142 5139 5136 5134 5132 5130 5128 5125 5122 5120 5118 5116 5113 5111 5108 5106 5102 5100 5096 5094 5090 5088 5084 5081 5078 5074 5072 5070 5067 5064 5061 5058 5056 5053 5050 5047 5044 5041 5038 5035 5032 5029 5026 5024
5239 5238 5236 5234 5232 5231 5230 5228 5226 5224 5222 5220 5218 5216 5214 5212 5210 5206 5204 5202 5198 5196 5192 5190 5186 5184 5180 5177 5174 5171 5168 5164 5161 5158 5155 5152 5150 5147 5144 5142 5140 5137 5134 5132 5130 5128 5126 5124 5121 5119 5116 5114 5112 5110 5108 5105 5102 5100 5097 5094 5092 5088 5086 5082 5080 5076 5074 5071 5068 5066 5064 5061 5058 5056 5052 5050 5046 5044 5041 5038 5035 5032 5029 5026 5024
5236 5234 5232 5231 5230 5228 5226 5225 5223 5221 5219 5217 5215 5213 5210 5208 5206 5204 5201 5198 5195 5192 5189 5186 5182 5180 5176 5173 5170 5166 5163 5160 5156 5154 5150 5148 5145 5142 5140 5138 5136 5133 5130 5128 5126 5124 5122 5119 5117 5115 5113 5110 5108 5106 5104 5102 5100 5098 5094 5092 5089 5086 5084 5081 5078 5075 5072 5070 5068 5065 5062 5060 5058 5055 5052 5049 5046 5044 5040 5038 5034 5032 5029 5026 5024
5232 5231 5230 5228 5226 5225 5224 5222 5220 5218 5216 5214 5212 5210 5207 5204 5202 5200 5197 5194 5192 5188 5185 5182 5178 5175 5172 5168 5165 5162 5158 5155 5152 5149 5146 5143 5140 5138 5136 5134 5131 5129 5126 5124 5122 5120 5118 5116 5114 5112 5110 5108 5106 5103 5101 5100 5097 5095 5092 5090 5087 5084 5082 5079 5076 5074 5071 5068 5066 5064 5062 5060 5058 5054 5052 5049 5046 5044 5040 5037 5034 5032 5028 5026 5024
5229 5228 5226 5225 5224 5222 5220 5218 5216 5214 5212 5210 5208 5206 5204 5201 5198 5196 5193 5190 5187 5184 5181 5178 5174 5170 5167 5164 5160 5157 5154 5150 5148 5144 5142 5139 5136 5134 5132 5130 5127 5125 5122 5120 5118 5116 5114 5112 5110 5108 5106 5104 5102 5100 5098 5096 5094 5092 5090 5088 5085 5082 5080 5077 5074 5072 5070 5068 5066 5063 5061 5059 5056 5054 5052 5048 5046 5042 5040 5036 5034 5032 5028 5026 5023
5226 5224 5223 5222 5220 5218 5217 5215 5213 5211 5209 5207 5204 5202 5200 5197 5194 5192 5189 5186 5183 5180 5176 5173 5170 5166 5162 5159 5156 5152 5149 5146 5143 5140 5137 5134 5132 5130 5128 5126 5123 5121 5119 5116 5114 5112 5110 5108 5106 5104 5102 5100 5099 5097 5095 5094 5092 5090 5088 5085 5082 5080 5078 5076 5073 5070 5068 5066 5064 5062 5060 5058 5056 5054 5051 5048 5045 5042 5040 5036 5034 5032 5028 5026 5023
5222 5221 5220 5218 5217 5216 5214 5212 5210 5208 5206 5204 5202 5199 5196 5194 5190 5188 5184 5182 5178 5175 5172 5168 5165 5162 5158 5154 5151 5148 5144 5142 5138 5136 5133 5130 5128 5126 5124 5122 5120 5118 5115 5113 5111 5109 5106 5104 5102 5100 5099 5097 5096 5094 5092 5090 5089 5087 5084 5082 5080 5078 5076 5074 5072 5069 5067 5064 5063 5061 5059 5057 5055 5053 5050 5048 5045 5042 5039 5036 5034 5031 5028 5026 5022